Hanford, WA

12:50 AM PDT on May 23, 2017 (GMT -0700)
Hanford

Weather History for KHMS - November, 2012

Change the Weather History Date:

Wednesday, November 7, 2012

  Actual Average Record
Temperature  
Mean Temperature 46 °F -  
Max Temperature 58 °F 51 °F 68 °F (2006)
Min Temperature 34 °F 32 °F 22 °F (2011)
Degree Days  
Heating Degree Days 19    
Moisture  
Dew Point 33 °F    
Average Humidity 57    
Maximum Humidity 82    
Minimum Humidity 36    
Precipitation  
Precipitation 0.00 in - - ()
Sea Level Pressure  
Sea Level Pressure 30.02 in    
Wind  
Wind Speed 11 mph (WNW)    
Max Wind Speed 18 mph    
Max Gust Speed -    
Visibility 15 miles    
Events      
Averages and records for this station are not official NWS values.
T = Trace of Precipitation, MM = Missing Value Source: NWS Daily Summary

Daily Weather History Graph

Daily Weather History Graph

Search for Another Location

Airport or City:

Trip Planner

Search our weather history database for the weather conditions in past years. The results will help you decide how hot, cold, wet, or windy it might be!

Date:

Astronomy

Nov. 07, 2012 Rise Set
Actual Time 6:49 AM PST 4:33 PM PST
Civil Twilight 6:17 AM PST 5:05 PM PST
Nautical Twilight 5:41 AM PST 5:42 PM PST
Astronomical Twilight 5:06 AM PST 6:17 PM PST
Moon No Moon Rise 1:07 PM PST (11/7)
Length of Visible Light 10h 48m
Length of Day
9h 44m
Last Quarter, 42% of the Moon is Illuminated
Nov 7
Last Quarter
Nov 13
New
Nov 20
First Quarter
Nov 28
Full
Dec 6
Last Quarter

Hourly Weather History & Observations

Time (PST) Temp. Windchill Dew Point Humidity Pressure Visibility Wind Dir Wind Speed Gust Speed Precip Events Conditions
12:50 AM 53.2 °F - 43.2 °F 69% 29.92 in 15.0 mi WNW 13.8 mph - N/A   Overcast
1:50 AM 51.6 °F - 41.4 °F 68% 29.93 in 15.0 mi WSW 8.1 mph - N/A   Overcast
3:50 AM 49.8 °F - 36.3 °F 60% 29.98 in 15.0 mi WNW 18.4 mph - N/A   Partly Cloudy
4:50 AM 47.8 °F - 36.3 °F 64% 30.00 in 15.0 mi WSW 12.7 mph - N/A   Clear
5:50 AM 45.9 °F 40.4 °F 34.9 °F 66% 30.02 in 15.0 mi West 11.5 mph - N/A   Partly Cloudy
6:50 AM 46.8 °F - 35.2 °F 64% 30.04 in 15.0 mi WNW 16.1 mph - N/A   Partly Cloudy
7:50 AM 49.1 °F - 34.3 °F 57% 30.07 in 15.0 mi WNW 12.7 mph - N/A   Partly Cloudy
8:50 AM 50.9 °F - 33.4 °F 51% 30.08 in 15.0 mi NW 10.4 mph - N/A   Clear
9:50 AM 54.5 °F - 32.7 °F 44% 30.08 in 15.0 mi West 9.2 mph - N/A   Clear
10:50 AM 56.5 °F - 32.7 °F 41% 30.08 in 15.0 mi West 8.1 mph - N/A   Clear
11:50 AM 58.1 °F - 31.3 °F 36% 30.07 in 15.0 mi WSW 11.5 mph - N/A   Partly Cloudy
12:50 PM 57.7 °F - 30.9 °F 36% 30.06 in 15.0 mi NW 8.1 mph - N/A   Partly Cloudy
1:50 PM 57.7 °F - 31.1 °F 36% 30.06 in 15.0 mi North 8.1 mph - N/A   Partly Cloudy
2:50 PM 54.0 °F - 32.4 °F 44% 30.06 in 15.0 mi NW 4.6 mph - N/A   Scattered Clouds
3:50 PM 52.2 °F - 31.8 °F 46% 30.05 in 15.0 mi North 4.6 mph - N/A   Partly Cloudy
4:50 PM 46.8 °F - 32.4 °F 57% 30.06 in 15.0 mi NW 8.1 mph - N/A   Partly Cloudy
5:50 PM 45.3 °F 41.1 °F 31.8 °F 59% 30.05 in 15.0 mi West 8.1 mph - N/A   Partly Cloudy
6:50 PM 42.6 °F 38.4 °F 30.0 °F 61% 30.04 in 15.0 mi West 6.9 mph - N/A   Clear
9:50 PM 38.1 °F 32.9 °F 29.8 °F 72% 29.97 in 15.0 mi West 6.9 mph - N/A   Clear
10:50 PM 34.5 °F 30.4 °F 29.5 °F 82% 29.96 in 15.0 mi West 4.6 mph - N/A   Clear
11:50 PM 35.1 °F 28.6 °F 29.1 °F 79% 29.94 in 15.0 mi WSW 8.1 mph - N/A   Clear